EW1604 Weather Reports


Display with metric or nautical units.
time (UTC)temp
F
wind
direction
speed
MPH
gust
MPH
rain 1hr
in
rain 24hr
in
rain mn
in
humidity
%
barometer
mb
20210927050013 63 155 0.0 0.0 0.00 0.00 0.00 98 1018.7
20210927044502 64 155 0.0 0.0 0.00 0.00 0.00 98 1018.8
20210927043002 64 155 0.0 0.0 0.00 0.00 0.00 98 1018.8
20210927041721 64 155 0.0 0.0 0.00 0.00 0.00 98 1018.7
20210927040128 64 155 0.0 0.0 0.00 0.00 0.00 97 1018.7
20210927034628 64 155 0.0 0.0 0.00 0.00 0.00 97 1018.8
20210927033126 64 155 0.0 0.0 0.00 0.00 0.00 97 1018.7
20210927031638 65 155 0.0 0.0 0.00 0.00 0.00 96 1018.7
20210927030120 65 155 0.0 0.0 0.00 0.00 0.00 96 1018.7
20210927024633 65 155 0.0 0.0 0.00 0.00 0.00 96 1018.7
20210927023122 66 155 0.0 0.0 0.00 0.00 0.00 96 1018.7
20210927021620 66 155 0.0 0.0 0.00 0.00 0.00 95 1018.6
20210927020119 67 155 0.0 0.0 0.00 0.00 0.00 94 1018.4
20210927014651 67 155 0.0 0.0 0.00 0.00 0.00 93 1018.4
20210927013106 67 155 0.0 0.0 0.00 0.00 0.00 92 1018.1
20210927011612 68 155 0.0 0.0 0.00 0.00 0.00 91 1018.0
20210927010106 68 155 0.0 0.0 0.00 0.00 0.00 90 1017.8
20210927004647 69 155 0.0 0.0 0.00 0.00 0.00 89 1017.7
20210927003121 70 155 0.0 0.0 0.00 0.00 0.00 86 1017.6
20210927001651 71 155 0.0 0.0 0.00 0.00 0.00 84 1017.6
20210927000150 73 155 0.0 0.0 0.00 0.00 0.00 82 1017.6
20210926234634 74 155 0.0 0.0 0.00 0.00 0.00 79 1017.4
20210926233121 76 155 0.0 0.0 0.00 0.00 0.00 73 1017.3
20210926231626 77 167 0.0 0.0 0.00 0.00 0.00 69 1017.3
20210926230126 78 129 0.0 0.0 0.00 0.00 0.00 66 1017.2
20210926224613 79 129 0.0 0.0 0.00 0.00 0.00 68 1017.1
20210926223053 80 153 0.0 0.0 0.00 0.00 0.00 66 1017.2
20210926221615 81 193 0.0 0.0 0.00 0.00 0.00 62 1017.2
20210926220219 83 150 0.0 0.0 0.00 0.00 0.00 60 1017.2
20210926214608 83 179 0.0 0.0 0.00 0.00 0.00 62 1017.0
20210926213051 83 194 0.0 0.0 0.00 0.00 0.00 60 1017.0
20210926211602 84 130 0.0 1.0 0.00 0.00 0.00 59 1017.1
20210926210101 85 105 0.0 0.0 0.00 0.00 0.00 57 1016.9
20210926204615 86 179 0.0 0.0 0.00 0.00 0.00 56 1016.9
20210926203118 85 238 0.0 0.0 0.00 0.00 0.00 50 1017.0
20210926201539 85 86 0.0 0.0 0.00 0.00 0.00 53 1017.2
20210926200124 85 104 0.0 0.0 0.00 0.00 0.00 51 1017.3
20210926194536 85 228 0.0 0.0 0.00 0.00 0.00 54 1017.5
20210926193038 85 146 0.0 0.0 0.00 0.00 0.00 52 1017.6
20210926191539 84 49 0.0 0.0 0.00 0.00 0.00 52 1017.8
20210926190105 83 90 0.0 0.0 0.00 0.00 0.00 52 1018.1
20210926184557 84 168 0.0 0.0 0.00 0.00 0.00 55 1018.4
20210926183111 83 12 0.0 0.0 0.00 0.00 0.00 53 1018.7
20210926181545 83 303 0.0 0.0 0.00 0.00 0.00 55 1018.9
20210926180052 82 172 0.0 0.0 0.00 0.00 0.00 56 1019.3
20210926174531 82 170 0.0 0.0 0.00 0.00 0.00 58 1019.5
20210926173033 82 323 0.0 0.0 0.00 0.00 0.00 57 1019.7
20210926171524 82 176 0.0 0.0 0.00 0.00 0.00 62 1020.0
20210926170037 81 144 0.0 0.0 0.00 0.00 0.00 59 1020.2
20210926164528 80 129 0.0 0.0 0.00 0.00 0.00 58 1020.3
20210926163017 80 317 0.0 0.0 0.00 0.00 0.00 63 1020.4
20210926161530 79 49 0.0 0.0 0.00 0.00 0.00 66 1020.5
20210926160009 78 81 0.0 0.0 0.00 0.00 0.00 66 1020.5
20210926154511 78 48 0.0 0.0 0.00 0.00 0.00 65 1020.6
20210926153012 77 70 0.0 0.0 0.00 0.00 0.00 69 1020.5
20210926151502 76 92 0.0 0.0 0.00 0.00 0.00 68 1020.6
20210926150154 75 298 0.0 3.0 0.00 0.00 0.00 71 1020.6
20210926144602 74 63 0.0 0.0 0.00 0.00 0.00 70 1020.6
20210926143211 74 58 0.0 0.0 0.00 0.00 0.00 73 1020.7
20210926141600 72 68 0.0 0.0 0.00 0.00 0.00 79 1020.6
20210926140100 70 103 0.0 0.0 0.00 0.00 0.00 81 1020.5
20210926134614 68 84 0.0 0.0 0.00 0.00 0.00 85 1020.5
20210926133043 66 63 0.0 0.0 0.00 0.00 0.00 98 1020.2
20210926131613 64 63 0.0 0.0 0.00 0.00 0.00 98 1020.1
20210926130122 62 72 0.0 0.0 0.00 0.00 0.00 99 1020.0
20210926124619 61 72 0.0 0.0 0.00 0.00 0.00 99 1019.7
20210926123025 59 72 0.0 0.0 0.00 0.00 0.00 99 1019.7
20210926121543 58 72 0.0 0.0 0.00 0.00 0.00 99 1019.6
20210926120041 57 72 0.0 0.0 0.00 0.00 0.00 100 1019.5
20210926114531 57 72 0.0 0.0 0.00 0.00 0.00 100 1019.4
20210926113027 57 72 0.0 0.0 0.00 0.00 0.00 100 1019.3
20210926111549 57 72 0.0 0.0 0.00 0.00 0.00 100 1019.1
20210926110031 57 72 0.0 0.0 0.00 0.00 0.00 99 1019.0
20210926104516 57 72 0.0 0.0 0.00 0.01 0.00 99 1018.9
20210926103030 57 72 0.0 0.0 0.00 0.01 0.00 99 1018.8
20210926101524 57 72 0.0 0.0 0.00 0.01 0.00 99 1018.6
20210926100013 57 72 0.0 0.0 0.00 0.01 0.00 99 1018.5
20210926094513 57 72 0.0 0.0 0.00 0.01 0.00 99 1018.3
20210926093022 57 72 0.0 0.0 0.00 0.01 0.00 99 1018.2
20210926091511 57 72 0.0 0.0 0.00 0.01 0.00 99 1018.1
20210926090009 57 72 0.0 0.0 0.00 0.01 0.00 99 1017.9
20210926084514 57 72 0.0 0.0 0.00 0.01 0.00 99 1017.9
20210926083006 57 72 0.0 0.0 0.00 0.01 0.00 99 1017.9
20210926081509 57 72 0.0 0.0 0.00 0.01 0.00 99 1017.8
20210926080005 58 72 0.0 0.0 0.00 0.01 0.00 99 1017.8
20210926074505 58 72 0.0 0.0 0.00 0.01 0.00 99 1017.9
20210926073002 58 72 0.0 0.0 0.00 0.01 0.00 99 1017.9
20210926071501 58 72 0.0 0.0 0.00 0.01 0.00 98 1018.1
20210926070140 58 72 0.0 0.0 0.00 0.01 0.00 98 1018.2
20210926064748 58 72 0.0 0.0 0.00 0.01 0.00 98 1018.2
20210926063121 59 72 0.0 0.0 0.00 0.01 0.00 98 1018.3
20210926061625 59 72 0.0 0.0 0.00 0.01 0.00 98 1018.2
20210926060244 59 72 0.0 0.0 0.00 0.01 0.00 98 1018.3
20210926054810 60 72 0.0 0.0 0.00 0.01 0.00 98 1018.3
20210926053137 59 72 0.0 0.0 0.00 0.01 0.00 98 1018.4
20210926051715 60 72 0.0 0.0 0.00 0.01 0.00 98 1018.5